This demonstration page uses our WeatherBlox Daily Observations layout. Learn more.

Left ArrowRight Arrow

36.19886, -115.1175

Hourly Observations for November 29, 2022

Temp ( °F °C ) Dew Point ( °F °C ) Humidity (%) Winds ( mph kmh ) Pressure ( in mb ) Visibility ( mi km ) Precip ( " mm )
12:53 am 00:53 Clear 45 7.2 21 -6.1 38 38 SE 3 6 29.77 1008 10 16 0.00 0.00
1:53 am 01:53 Clear 44 6.7 22 -5.6 41 41 SSE 3 6 29.80 1009 10 16 0.00 0.00
2:53 am 02:53 Clear 43 6.1 21 -6.1 41 41 E 5 7 29.82 1010 10 16 0.00 0.00
3:53 am 03:53 Clear 44 6.7 19 -7.2 36 36 Calm 29.85 1011 10 16 0.00 0.00
4:53 am 04:53 Clear 45 7.2 19 -7.2 35 35 NNE 7 11 29.88 1012 10 16 0.00 0.00
5:53 am 05:53 Clear 47 8.3 17 -8.3 30 30 NNE 9 15 29.92 1013 10 16 0.00 0.00
6:53 am 06:53 Sunny 47 8.3 16 -8.9 28 28 ENE 5 7 29.98 1015 10 16 0.00 0.00
7:53 am 07:53 Sunny 48 8.9 19 -7.2 31 31 NE 6 9 30.03 1017 10 16 0.00 0.00
8:53 am 08:53 Sunny 52 11.1 19 -7.2 27 27 E 8 13 30.06 1018 10 16 0.00 0.00
9:53 am 09:53 Sunny 54 12.2 17 -8.3 23 23 ENE 9 15 30.08 1019 10 16 0.00 0.00
10:53 am 10:53 Sunny 55 12.8 16 -8.9 21 21 E 8 13 30.09 1019 10 16 0.00 0.00
11:53 am 11:53 Sunny 55 12.8 16 -8.9 21 21 E 5 7 30.08 1019 10 16 0.00 0.00
12:53 pm 12:53 Sunny 56 13.3 15 -9.4 20 20 ENE 9 15 30.06 1018 10 16 0.00 0.00
1:53 pm 13:53 Sunny 55 12.8 14 -10 19 19 E 9 15 30.07 1018 10 16 0.00 0.00
2:53 pm 14:53 Sunny 56 13.3 14 -10 19 19 E 6 9 30.07 1018 10 16 0.00 0.00
3:53 pm 15:53 Sunny 54 12.2 13 -10.6 19 19 E 8 13 30.08 1019 10 16 0.00 0.00
4:53 pm 16:53 Clear 51 10.6 12 -11.1 20 20 E 6 9 30.09 1019 10 16 0.00 0.00
5:53 pm 17:53 Clear 51 10.6 13 -10.6 21 21 SSE 5 7 30.10 1019 10 16 0.00 0.00
6:53 pm 18:53 Clear 48 8.9 14 -10 25 25 SSW 5 7 30.12 1020 10 16 0.00 0.00
7:53 pm 19:53 Clear 47 8.3 15 -9.4 27 27 W 5 7 30.13 1020 10 16 0.00 0.00
8:53 pm 20:53 Clear 44 6.7 15 -9.4 31 31 WNW 3 6 30.14 1021 10 16 0.00 0.00
9:53 pm 21:53 Clear 44 6.7 16 -8.9 32 32 NW 3 6 30.15 1021 10 16 0.00 0.00
10:53 pm 22:53 Clear 39 3.9 15 -9.4 37 37 WNW 5 7 30.17 1022 10 16 0.00 0.00
11:53 pm 23:53 Clear 39 3.9 16 -8.9 39 39 WNW 6 9 30.16 1021 10 16 0.00 0.00

Powered by AerisWeather